Time,TemperatureF,DewpointF,PressureIn,WindDirection,WindDirectionDegrees,WindSpeedMPH,WindSpeedGustMPH,Humidity,HourlyPrecipIn,Conditions,Clouds,dailyrainin,SoftwareType,DateUTC
2013-09-06 01:21:00,67.0,67.0,-100.00,WSW,255,0.0,0.0,99,0.00,,,-99.99,,2013-09-06 06:21:00,
2013-09-06 02:42:00,65.0,65.0,-100.00,WSW,240,1.0,2.0,99,0.00,,,-99.99,,2013-09-06 07:42:00,
2013-09-06 05:23:00,64.0,64.0,-100.00,SW,230,2.0,2.0,99,0.00,,,-99.99,,2013-09-06 10:23:00,
2013-09-06 05:43:00,63.0,63.0,-100.00,SW,220,2.0,3.0,99,0.00,,,-99.99,,2013-09-06 10:43:00,
2013-09-06 06:22:00,63.0,63.0,-100.00,WSW,240,3.0,4.0,99,0.00,,,-99.99,,2013-09-06 11:22:00,
2013-09-06 06:42:00,63.0,63.0,-100.00,WSW,250,1.0,4.0,99,0.00,,,-99.99,,2013-09-06 11:42:00,
2013-09-06 07:21:00,64.0,64.0,-100.00,WSW,250,1.0,2.0,99,0.00,,,-99.99,,2013-09-06 12:21:00,
2013-09-06 07:42:00,65.0,64.0,-100.00,WSW,240,2.0,4.0,98,0.00,,,-99.99,,2013-09-06 12:42:00,
2013-09-06 09:22:00,74.0,67.0,-100.00,WSW,240,8.0,13.0,77,0.00,,,-99.99,,2013-09-06 14:22:00,
2013-09-06 10:22:00,77.0,67.0,-100.00,WSW,240,12.0,17.0,71,0.00,,,-99.99,,2013-09-06 15:22:00,
2013-09-06 10:43:00,78.0,67.0,-100.00,WSW,240,14.0,19.0,69,0.00,,,-99.99,,2013-09-06 15:43:00,
2013-09-06 13:42:00,86.0,72.0,-100.00,WSW,250,14.0,19.0,63,0.00,,,-99.99,,2013-09-06 18:42:00,
2013-09-06 14:43:00,87.0,72.0,-100.00,SW,235,9.0,24.0,62,0.00,,,-99.99,,2013-09-06 19:43:00,
2013-09-06 17:23:00,86.0,72.0,-100.00,SW,235,12.0,17.0,63,0.00,,,-99.99,,2013-09-06 22:23:00,
2013-09-06 19:42:00,83.0,73.0,-100.00,SW,230,6.0,10.0,73,0.00,,,-99.99,,2013-09-07 00:42:00,
2013-09-06 20:42:00,79.0,73.0,-100.00,SW,235,5.0,9.0,83,0.00,,,-99.99,,2013-09-07 01:42:00,
2013-09-06 21:23:00,77.0,73.0,-100.00,WSW,240,7.0,9.0,88,0.00,,,-99.99,,2013-09-07 02:23:00,
2013-09-06 21:42:00,76.0,73.0,-100.00,SW,235,5.0,11.0,90,0.00,,,-99.99,,2013-09-07 02:42:00,
2013-09-06 22:23:00,75.0,73.0,-100.00,WSW,245,4.0,7.0,94,0.00,,,-99.99,,2013-09-07 03:23:00,
2013-09-06 23:14:00,74.0,73.0,-100.00,WSW,250,6.0,9.0,96,0.00,,,-99.99,,2013-09-07 04:14:00,
2013-09-06 23:23:00,74.0,73.0,-100.00,WSW,250,6.0,7.0,96,0.00,,,-99.99,,2013-09-07 04:23:00,
2013-09-06 23:43:00,73.0,72.0,-100.00,WSW,245,5.0,7.0,96,0.00,,,-99.99,,2013-09-07 04:43:00,